Volver al catálogo

STARLINK-11236

ActivoComunicacionesVLEO
NORAD 61062·PAYLOAD·🇺🇸 United States

Lanzado Sep 13, 2024 desde Vandenberg Space Force Base

Loading…

Próximos Pases (próximas 24 horas)

TLE

ActualizadoSource: CelesTrak SupGP

Época: Sep 14, 2026, 20:58 UTC

1 61062C 24164N   26257.87409722 -.00046960  00000+0 -38681-3 0  2575
2 61062  53.1571  98.7287 0001167  91.1960 190.4968 15.69733661    16

Sigue STARLINK-11236 en tiempo real con AllMySat

Download on the App Store